{"data":{"norad_id":68446,"intl_designator":"2026-067AG","name":"HADES-SA (SPINNYONE)","alt_names":[],"object_type":"PAYLOAD","status":"ACTIVE","operator":null,"country":"SPN","launch_date":"2026-03-30","launch_site_code":"AFWTR","launch_vehicle":null,"mission":null,"orbit_class":"UNKNOWN","rcs_meters":null,"size_class":null,"mass_kg":null,"dimensions":null,"purposes":[],"wikipedia_slug":null,"has_3d_model":false,"image_url":null,"decayed_at":null,"tle_current":{"epoch":"2026-09-17T19:33:21.582432Z","epoch_age_seconds":301250,"freshness":"STALE","line1":"1 68446U 26067AG  26260.81483313  .00014198  00000+0  62496-3 0  9998","line2":"2 68446  97.4497 217.9593 0008915 105.6833 254.5387 15.21924785 26001","mean_motion":15.21924785,"eccentricity":0.0008915,"inclination_deg":97.4497,"raan_deg":217.9593,"arg_perigee_deg":105.6833,"mean_anomaly_deg":254.5387,"bstar":0.00062496,"rev_number":2600,"period_min":94.617028002471,"perigee_km":493.90336779776,"apogee_km":506.16714893443,"semimajor_km":6878.1722583661,"source":"CELESTRAK","updated_at":"2026-09-20T09:00:24.206962Z"}}}